AirNav   ProFlight Series 2 Aviation Headset
 
 1012 users online  

MO44 SSM Health St. Joseph Hospital-St. Charles Heliport
St Charles, Missouri, USA

GOING TO ST CHARLES?


FAA INFORMATION EFFECTIVE 16 JULY 2020

Location

FAA Identifier: MO44
Lat/Long: 38-46-50.9800N 090-29-07.6300W
38-46.849667N 090-29.127167W
38.7808278,-90.4854528
(estimated)
Elevation: 530 ft. / 162 m (estimated)
Variation: 02E (1985)
From city: 1 mile N of ST CHARLES, MO
Time zone: UTC -5 (UTC -6 during Standard Time)
Zip code: 63301

Heliport Operations

Heliport use: Private use, MEDICAL.
Activation date: 11/1988
Control tower: no
ARTCC: KANSAS CITY CENTER
FSS: SAINT LOUIS FLIGHT SERVICE STATION
Attendance: CONTINUOUS
Wind indicator: yes
Segmented circle: no
Lights: FOR FLOOD LGTS CALL 314-947-5076.

Heliport Communications

WX ASOS at STL (6 nm E): 125.025 (314-890-4790)
WX ASOS at SET (9 nm N): 118.075 (636-250-4590)
WX ASOS at SUS (11 nm SW): 134.8 (314-890-7255)
WX ASOS at CPS (20 nm SE): PHONE 618-332-0001

Nearby radio navigation aids

VOR radial/distance  VOR name  Freq  Var
STLr181/4.8ST LOUIS VORTAC117.4001E
FTZr072/23.3FORISTELL VORTAC110.8005E
TOYr271/26.6TROY VORTAC116.0004E

 
NDB name  Hdg/Dist  Freq  Var  ID
EAVES026/6.922701WFZ ..-. --..
CIVIC MEMORIAL253/21.126301WCVM -.-. ...- --

Heliport Services

Runway Information

Helipad H1

Dimensions: 40 x 40 ft. / 12 x 12 m
Surface: asphalt
Runway edge lights: FLD
Latitude: 38-46.849667N
Longitude: 090-29.127167W
Elevation: 530.0 ft.
Traffic pattern: leftleft

Heliport Ownership and Management from official FAA records

Ownership: Privately-owned
Owner: SSM HEALTH CARE ST. LOUIS
1015 CORPORATE SQ DR., SUITE 110
ST LOUIS, MO 63132
Phone (314) 989-2895
Manager: JOHN O'BRIEN
1015 CORPORATE SQ DR., SUITE 110
ST LOUIS, MO 63132
Phone (314) 989-2895

Additional Remarks

FOR CD CTC ST LOUIS APCH AT 314-890-1018.

Instrument Procedures

There are no published instrument procedures at MO44.

Some nearby airports with instrument procedures:

1H0 - Creve Coeur Airport (3 nm S)
KSTL - St Louis Lambert International Airport (6 nm E)
KSET - St Charles County Smartt Airport (9 nm N)
KSUS - Spirit of St Louis Airport (11 nm SW)
KCPS - St Louis Downtown Airport (20 nm SE)
 
Loc | Ops | Rwys | IFR | FBO | Links
Com | Nav | Svcs | Stats | Notes
Area around MO44 (SSM Health St. Joseph Hospital-St. Charles Heliport)
 
Road maps at: MapQuest Bing Google
 
Aerial photo
No photo
 
Sectional chart

 
Airport distance calculator
Flying to SSM Health St. Joseph Hospital-St. Charles Heliport? Find the distance to fly.

From to MO44

Sunrise and sunset
Times for 03-Aug-2020
 Local
(UTC-5)
 Zulu
(UTC)
Morning civil twilight05:3710:37
Sunrise06:0711:07
Sunset20:0901:09
Evening civil twilight20:3901:39

Current date and time
Zulu (UTC)  04-Aug-2020 01:40:02
Local (UTC-5)  03-Aug-2020 20:40:02
 
METAR
KSTL 
6nm E 
040051Z 01007KT 10SM SCT049 BKN070 BKN250 22/17 A3003 RMK AO2 SLP162 T02220167
KSET 
9nm N 
040054Z AUTO 01008KT 10SM CLR 22/16 A3002 RMK AO2 SLP163 T02220156
KSUS 
11nm SW 
040054Z 36006KT 10SM FEW037 SCT044 SCT065 22/16 A3002 RMK AO2 SLP159 T02220156
TAF
KSTL 
6nm E 
032154Z 0322/0424 34014KT P6SM VCSH SCT025 BKN040 FM032300 35009KT P6SM OVC040 FM041000 35005KT P6SM BKN022 FM041600 36008KT P6SM SCT080
KSUS 
11nm SW 
031912Z 0319/0418 35009KT P6SM BKN035 FM032300 35008KT P6SM SCT045 FM041000 VRB04KT P6SM BKN025 FM041500 35007KT P6SM SCT022
NOTAMs
Click for the latest NOTAMs
NOTAMs are issued by the DoD/FAA and will open in a separate window not controlled by AirNav.

 

 
 

Would you like to see your business listed on this page?

 If your business provides an interesting product or service to pilots, flight crews, aircraft, or users of the SSM Health St. Joseph Hospital-St. Charles Heliport, you should consider listing it here.  To start the listing process, click on the button below
 
Add a business
 

Other Pages about SSM Health St. Joseph Hospital-St. Charles Heliport

Update a link
 
Copyright © AirNav, LLC. All rights reserved. Privacy Policy  Contact